Wind_Speed
9 8 8 7 7 6 4 2 1 2 2 2 3 4 6 8 9 11 11 10 10 8 6 6 7 7 7 8 7 6 4 2 1 4 5 7 8 6 6 7 7 6 5 4 3 4 5 5 4 4 4 4 3 2 1 1 1 2 2 2 1 2 2 1 4 5 4 7 9 9 7 6 8 7 6 6 7 9 8 8 8 8 9 13 17 20 20 19
10 9 8 7 7 6 5 4 3 3 4 4 4 5 6 7 9 10 10 9 9 8 6 6 6 6 7 8 7 5 4 4 4 3 4 7 8 7 7 7 7 5 5 4 4 6 6 5 5 4 4 4 2 1 1 1 2 2 2 1 2 3 2 3 5 5 2 6 10 9 7 7 8 9 7 6 8 9 7 9 9 10 13 16 19 19 19 18
10 10 9 7 7 6 5 5 4 5 5 5 5 6 6 7 8 9 9 8 8 8 7 6 6 7 8 8 7 5 6 8 7 5 3 6 7 8 9 6 5 4 5 5 6 7 5 4 5 4 5 5 1 2 1 2 2 1 2 1 3 2 4 5 5 6 5 5 10 9 7 7 8 8 6 5 8 8 6 8 8 11 14 17 19 18 18 17
11 10 10 8 7 6 6 5 5 6 7 7 7 7 7 8 8 9 8 7 7 7 6 6 6 8 9 9 6 4 5 5 6 5 3 5 6 8 9 6 4 4 5 6 7 7 5 4 4 3 6 5 0 2 0 2 1 1 2 3 4 2 4 6 5 6 4 4 7 8 8 8 7 6 5 5 6 5 5 7 6 11 16 18 19 18 18 16
11 11 10 10 9 7 6 6 6 6 7 8 8 8 8 8 8 8 7 6 6 6 6 5 7 8 9 9 5 3 2 3 5 4 3 5 5 6 7 7 5 5 5 5 6 5 4 3 4 5 6 4 1 2 2 2 2 3 3 4 5 2 4 5 5 6 5 5 7 8 7 7 7 6 5 4 4 5 6 7 7 11 16 19 19 17 17 16
11 11 10 10 10 9 8 7 6 7 7 8 8 8 8 8 8 8 7 5 5 5 5 5 7 8 9 9 6 3 5 2 5 2 2 4 3 3 5 6 6 6 5 6 6 5 4 3 5 5 5 4 2 2 3 2 2 1 3 5 6 5 5 6 5 5 5 6 7 6 5 7 7 5 5 4 4 7 6 8 8 12 15 18 18 16 16 15
12 11 11 11 10 10 9 9 8 7 7 7 8 8 8 7 7 7 6 4 4 4 4 5 6 7 8 9 6 2 3 5 5 2 3 2 2 2 3 4 6 7 6 7 7 6 4 3 4 4 6 4 2 3 2 3 1 1 4 7 7 7 7 6 5 5 5 6 6 4 5 7 6 4 4 5 3 5 7 9 10 13 15 17 16 15 14 14
14 13 12 11 11 10 10 9 9 8 8 8 7 7 7 6 6 5 5 4 3 3 4 4 5 7 7 10 7 1 3 6 3 3 3 0 1 2 3 4 7 8 8 8 7 5 4 3 3 5 4 2 3 2 1 3 1 3 6 6 6 6 6 6 5 5 6 6 5 5 5 6 3 2 4 5 5 5 8 10 11 13 15 15 15 14 13 12
15 15 14 13 12 11 10 10 9 9 9 8 8 7 6 5 5 4 4 3 2 2 3 4 4 6 7 9 8 4 4 4 2 3 2 1 1 4 5 5 8 9 9 9 7 4 3 2 3 4 4 3 3 2 2 2 2 6 5 6 6 5 4 4 5 5 5 5 5 6 6 5 2 2 4 4 5 7 9 11 12 13 15 14 14 13 12 12
16 16 15 15 14 12 11 10 10 9 9 9 8 7 5 4 4 4 4 4 3 3 3 3 4 5 7 8 8 3 5 2 2 3 1 1 1 5 6 7 10 11 9 8 7 3 2 2 3 4 3 1 3 3 1 2 4 6 5 6 6 5 4 3 4 5 5 6 4 6 6 5 3 3 3 3 5 9 10 12 12 13 14 13 13 13 12 11
17 16 16 16 15 14 12 11 10 9 9 9 8 6 5 4 3 3 4 3 3 3 3 3 4 5 7 7 7 2 4 2 3 3 1 1 4 6 7 9 12 11 8 8 6 2 0 2 3 4 3 1 3 4 3 3 5 5 5 6 6 6 5 3 4 5 5 4 2 5 5 5 5 3 1 2 6 10 11 12 12 12 12 13 13 12 11 10
17 17 17 16 16 15 14 12 10 10 9 8 7 6 5 3 2 2 3 3 3 3 3 3 4 5 7 7 4 2 2 3 4 3 1 1 5 8 9 11 12 10 8 7 4 2 0 1 3 4 2 2 2 3 4 5 4 4 3 3 5 5 4 3 4 4 4 3 2 5 5 6 7 3 2 3 7 10 10 12 12 12 12 13 13 12 10 9
17 17 17 17 17 16 15 13 11 10 9 7 7 6 5 3 2 2 3 3 3 3 3 3 4 4 7 5 1 1 2 4 3 4 3 5 6 10 12 12 13 12 10 6 4 2 1 1 3 4 2 3 0 2 5 5 3 3 3 3 2 4 3 3 3 4 5 3 3 5 4 6 6 4 3 4 7 10 10 11 11 12 12 13 13 11 10 9
16 16 17 17 17 17 16 14 12 10 8 6 6 5 5 4 4 3 3 4 4 4 4 4 3 4 6 2 1 1 3 4 5 7 7 8 8 9 11 12 13 13 11 7 5 3 1 2 3 2 2 2 2 4 5 5 3 2 2 3 2 1 2 3 3 6 6 3 3 5 3 4 7 6 4 5 7 10 10 10 11 11 12 12 12 11 10 9
17 17 17 17 17 17 17 15 12 10 7 5 4 5 5 5 4 3 3 3 4 5 5 5 4 4 5 2 2 2 5 4 7 9 8 9 8 8 10 11 11 10 9 7 5 3 0 1 2 3 2 1 5 6 4 3 3 1 1 1 2 3 4 5 4 5 4 3 4 5 3 4 7 6 4 5 7 9 9 10 10 11 12 12 12 11 10 9
17 17 17 17 17 18 17 16 13 10 7 4 3 4 5 5 5 4 3 3 5 5 4 5 3 5 6 2 4 4 5 6 8 9 9 9 5 6 8 8 7 7 6 5 4 3 1 0 2 3 2 3 5 4 3 2 3 1 2 2 5 5 3 5 4 3 2 4 5 4 3 3 7 5 4 5 7 8 8 9 9 10 11 12 12 11 9 9
18 17 17 17 17 18 17 16 14 10 7 4 3 4 5 5 5 6 5 4 4 4 5 5 3 4 4 3 5 5 6 8 9 9 9 8 6 6 7 7 6 6 5 4 4 4 3 3 3 3 4 4 3 3 3 3 3 2 1 2 4 6 5 3 4 4 3 3 4 5 3 3 5 3 3 5 7 8 8 9 9 9 11 11 11 10 10 9
19 18 17 17 17 17 17 16 14 10 7 4 3 4 6 6 8 8 7 6 4 4 7 7 5 3 3 6 5 6 9 9 10 8 8 9 8 7 5 5 6 6 8 6 6 7 6 6 5 4 4 4 4 5 3 2 3 4 4 3 2 5 5 4 4 7 7 3 3 4 1 3 2 2 2 4 8 9 9 8 8 9 10 11 10 10 10 9
20 19 18 17 16 16 17 16 14 9 6 4 3 4 6 7 9 8 7 6 6 6 5 5 8 3 2 8 6 6 10 11 9 8 8 10 9 7 4 4 6 9 10 8 9 10 7 6 6 5 5 5 5 5 3 4 5 6 5 4 5 4 4 5 6 8 8 4 5 4 1 1 4 3 2 3 7 10 9 8 8 8 10 11 10 9 9 8
20 19 18 17 15 15 15 15 13 8 5 4 3 4 5 6 6 4 3 8 11 10 8 5 8 5 1 7 6 5 10 12 10 9 10 10 9 8 6 6 8 9 9 8 8 9 6 6 8 6 3 4 4 4 5 4 4 6 5 3 4 3 3 5 5 7 6 4 6 6 5 4 6 4 4 4 7 9 10 10 10 9 9 10 10 9 9 8
21 19 18 17 15 14 13 14 13 7 4 3 1 3 4 4 4 2 4 8 9 9 9 7 10 9 4 6 7 6 9 11 10 10 11 10 10 10 8 8 9 8 8 7 4 5 5 8 8 4 1 2 2 4 5 4 3 6 6 4 2 2 3 4 4 5 5 5 4 7 7 7 8 6 6 6 7 9 11 12 12 12 11 10 10 9 9 8
21 19 18 17 14 13 11 12 11 5 3 2 1 1 1 2 2 4 7 8 7 7 8 8 11 10 8 9 9 7 8 10 11 13 13 11 11 10 8 9 8 6 7 7 5 5 7 10 8 3 1 2 4 4 6 6 5 6 4 4 2 3 4 4 4 4 5 4 2 5 6 6 9 8 9 11 10 9 10 12 12 12 13 12 11 10 9 9
22 20 19 16 14 12 10 10 9 4 3 4 2 1 2 2 1 4 5 8 8 6 6 8 10 9 10 11 11 10 9 9 12 14 15 13 12 9 8 9 7 4 7 9 8 7 8 9 8 5 3 5 5 5 7 6 4 5 4 4 1 2 1 2 4 5 4 3 2 1 5 5 7 8 10 13 13 9 9 11 12 12 12 13 12 11 10 10
22 22 20 17 15 11 10 10 6 3 3 5 5 5 3 1 2 5 5 8 6 3 5 8 8 8 9 8 10 14 11 7 10 14 16 15 11 8 8 8 6 5 6 9 9 9 7 3 2 5 6 7 7 6 7 6 5 5 3 4 3 1 1 2 5 6 4 4 3 4 4 3 5 8 9 11 13 11 9 10 12 13 14 13 13 13 12 11
22 23 22 18 14 10 10 8 4 3 3 4 7 7 4 0 3 5 5 7 4 4 5 7 7 7 9 8 10 13 9 7 8 11 17 17 11 8 6 6 6 5 7 9 8 8 6 4 3 6 8 10 9 7 7 6 5 5 3 3 4 1 3 5 8 6 3 4 3 4 3 2 2 5 6 7 10 12 12 13 13 14 15 15 15 15 14 13
22 22 23 20 15 11 8 4 3 4 4 4 8 8 5 2 3 5 4 5 3 5 6 7 7 7 9 10 12 11 8 8 8 10 16 16 11 7 5 6 6 3 4 6 6 4 3 5 5 7 8 10 10 8 7 5 6 3 4 3 1 3 6 8 9 6 3 2 3 4 4 0 1 2 3 6 7 10 12 13 14 14 15 16 17 18 16 15
22 21 22 21 17 12 7 4 6 5 3 5 8 8 5 2 3 5 4 5 3 4 6 6 5 8 8 9 14 10 3 11 11 11 14 14 12 8 6 6 5 3 4 5 5 3 4 7 7 8 8 9 9 7 5 6 7 0 5 1 2 4 5 7 7 4 1 2 4 4 3 3 1 3 4 4 6 8 10 12 14 15 16 17 18 20 19 16
23 21 22 21 18 14 9 6 6 3 4 5 7 9 6 3 3 4 5 4 2 3 4 5 4 7 7 8 14 6 3 12 10 10 13 13 12 9 7 6 4 4 6 6 2 5 5 8 9 9 9 8 4 1 3 5 5 3 5 1 2 3 4 5 5 2 1 2 2 3 2 4 2 4 4 4 4 5 8 10 12 16 17 17 17 19 20 18
24 23 22 20 17 13 9 7 5 5 5 5 8 9 6 3 2 4 5 3 3 3 4 6 5 7 8 8 11 6 4 7 3 8 14 13 12 8 5 4 5 3 5 8 4 5 3 3 4 6 7 4 3 6 3 4 2 5 4 3 3 3 4 4 4 2 2 4 2 1 2 5 2 4 4 2 2 1 3 5 7 11 15 17 16 16 18 18
24 23 21 18 14 11 8 5 5 6 4 6 9 8 6 4 3 5 5 1 3 3 4 6 5 7 10 10 10 8 7 4 4 10 12 10 12 10 5 3 6 6 5 8 7 1 4 2 1 4 3 4 7 6 2 1 4 7 6 4 4 4 4 4 3 3 4 5 1 1 2 5 4 2 4 1 1 2 2 2 3 5 9 13 15 15 17 19
22 21 19 16 13 9 6 3 5 5 5 7 10 10 7 4 4 5 3 1 1 3 5 6 6 7 11 10 8 9 8 5 8 13 10 7 10 10 7 5 5 6 5 6 7 5 7 7 4 3 3 5 7 6 4 4 7 7 5 4 4 3 3 4 3 3 6 3 3 2 2 5 5 1 3 3 3 2 2 2 2 2 3 7 11 14 16 19
20 18 15 14 12 7 4 3 6 6 7 9 12 12 7 5 5 5 2 2 2 3 3 4 6 6 8 9 7 9 9 6 9 11 9 8 8 8 8 6 5 6 6 6 7 7 8 7 5 6 6 7 7 6 5 5 6 6 4 5 5 3 3 5 3 3 5 1 4 3 2 4 6 3 1 2 3 1 2 3 4 2 0 3 6 10 13 16
17 14 13 13 12 7 4 3 8 8 8 11 12 11 7 5 5 2 1 3 1 2 1 2 4 4 5 7 7 8 8 6 9 10 8 8 8 8 9 8 5 5 4 4 5 7 7 6 7 7 7 9 9 5 5 5 6 6 5 4 5 3 4 5 3 4 4 2 5 3 2 4 6 2 1 1 2 2 1 1 3 3 2 2 3 6 9 13
13 10 10 11 11 7 4 3 9 11 11 14 11 8 7 6 2 0 2 2 4 2 0 1 1 4 6 7 6 8 8 6 9 9 8 8 7 7 9 9 10 8 4 3 4 5 5 5 9 8 6 10 11 6 3 2 6 6 3 4 5 3 3 4 2 3 2 2 4 3 3 4 4 1 2 2 4 3 2 2 2 3 2 1 2 4 6 9
10 7 9 10 9 7 3 3 9 13 15 14 9 6 7 6 2 1 1 1 3 1 0 1 4 6 8 7 5 7 6 5 10 9 7 9 8 8 8 8 11 9 6 4 3 3 6 1 7 5 3 8 11 5 3 4 4 4 3 5 5 2 2 3 3 5 6 2 3 4 4 3 1 3 3 2 4 4 3 2 2 3 3 3 1 2 3 5
6 5 8 9 9 8 5 5 9 14 15 11 8 6 6 2 1 1 1 2 3 4 4 4 5 6 8 7 7 9 5 3 9 9 7 9 8 8 8 5 9 11 8 5 2 4 6 2 8 5 4 5 6 4 5 6 2 4 5 5 0 3 4 4 2 2 5 5 1 1 5 3 2 4 4 3 4 4 4 3 3 4 3 3 3 2 0 2
5 2 6 8 7 7 7 7 9 14 12 9 7 5 3 1 3 3 3 3 2 4 6 4 4 4 6 7 7 10 8 5 8 7 6 8 7 8 10 7 8 12 11 8 3 1 4 2 8 7 6 5 3 4 6 4 3 2 3 4 4 1 4 4 2 2 4 5 1 1 4 3 1 1 3 4 5 4 4 2 4 2 1 3 4 4 3 1
6 1 4 6 5 6 6 7 8 10 8 7 6 3 2 1 2 3 3 3 3 3 6 4 1 2 4 6 6 9 9 7 8 8 6 6 5 7 11 10 9 11 12 10 5 0 3 2 7 6 5 7 5 6 6 5 5 4 1 3 3 2 2 2 3 3 3 3 1 0 3 3 2 1 1 3 4 3 3 2 2 2 2 3 3 5 4 3
6 2 0 5 4 4 4 6 6 6 7 6 6 2 1 2 1 1 2 3 3 4 4 3 1 2 3 3 2 7 9 8 7 7 7 6 5 6 8 8 8 10 11 10 6 1 3 4 3 6 6 6 7 7 6 7 6 3 2 4 3 2 1 1 2 3 4 4 2 1 2 0 2 4 4 2 1 2 3 2 1 2 3 2 3 5 5 5
6 2 1 3 3 4 5 5 5 6 5 3 4 1 1 2 2 2 2 2 4 4 3 2 1 2 2 3 2 3 6 6 6 6 6 6 5 5 7 8 6 7 9 10 6 2 3 3 1 6 7 5 7 6 4 4 6 6 6 5 4 1 2 3 3 3 4 5 3 3 4 2 5 4 3 2 1 2 2 2 2 2 3 4 5 5 5 6
6 3 1 3 1 5 5 4 4 4 4 2 2 1 1 2 4 4 3 3 5 5 4 5 5 5 4 4 3 1 3 6 6 7 5 6 8 6 6 8 7 8 8 8 8 6 4 4 3 5 6 6 4 2 4 4 2 4 5 5 4 3 3 4 3 3 3 5 4 4 6 3 6 2 1 2 2 3 3 2 2 3 3 4 5 5 6 6
7 3 1 2 1 4 1 4 3 2 4 1 0 1 1 3 5 5 3 4 5 5 5 5 6 7 6 6 4 2 4 6 6 7 5 6 9 6 4 6 8 10 8 6 6 5 2 3 5 3 2 1 5 5 2 3 3 5 5 4 3 4 5 5 4 2 2 3 2 3 6 2 6 3 1 2 2 3 3 2 2 3 4 4 4 5 5 5
9 7 4 3 0 1 4 4 3 4 4 1 1 2 2 3 4 4 4 5 5 5 5 5 6 7 6 5 5 4 4 5 6 7 5 6 6 2 5 8 9 10 9 6 6 6 2 3 5 3 1 2 4 5 3 2 4 6 6 4 5 5 5 5 4 2 3 3 2 4 5 1 5 4 3 4 3 3 3 2 1 2 4 4 3 4 4 5
11 7 4 4 3 1 5 4 2 3 2 2 3 4 4 5 6 5 5 4 4 4 5 5 6 6 5 4 5 5 4 4 6 7 5 5 2 4 5 10 10 10 9 5 5 9 6 3 4 5 4 5 5 5 5 5 6 7 4 4 5 6 4 4 2 2 5 5 3 5 5 2 6 4 4 5 5 4 3 3 2 2 2 2 2 2 3 3
10 4 2 2 3 1 3 3 3 3 1 2 5 5 4 5 5 5 6 5 5 5 5 5 4 5 5 5 6 7 7 6 6 4 4 5 3 4 4 10 11 11 7 2 4 10 7 4 5 6 6 6 5 4 3 4 6 6 4 5 7 8 7 6 4 4 6 4 3 6 5 3 7 6 5 5 5 4 4 4 3 2 2 1 1 1 2 3
7 3 1 1 1 1 1 1 3 4 2 3 4 4 5 6 4 4 5 5 4 5 7 7 5 6 7 8 9 9 9 10 7 4 5 5 3 3 4 9 10 9 4 1 7 10 4 4 7 7 7 5 3 1 0 2 5 6 6 8 9 9 9 7 6 5 4 2 4 6 5 2 3 6 5 5 5 5 4 5 5 4 3 2 2 1 1 2
5 3 3 3 2 2 2 2 2 3 1 2 3 2 4 6 3 4 5 4 3 4 7 7 7 7 7 8 9 9 9 10 9 7 8 6 2 3 5 8 9 6 4 6 11 9 3 6 9 10 9 6 3 1 1 4 7 7 7 9 10 10 10 10 8 5 2 3 5 3 3 6 4 4 5 5 5 5 5 5 5 5 3 2 2 1 1 1
4 2 3 4 3 2 2 1 2 3 3 3 3 3 6 7 6 4 4 3 4 4 5 6 8 7 5 5 6 7 8 9 9 9 8 6 4 4 6 8 8 8 8 9 10 6 5 7 9 10 10 5 2 2 3 6 7 7 7 8 9 11 11 11 11 6 4 7 7 1 4 8 6 2 3 3 4 5 5 5 5 4 3 2 1 2 1 1
4 4 2 2 4 5 5 5 4 6 6 4 4 5 7 8 7 5 2 4 6 4 4 6 5 3 4 4 5 7 6 6 8 7 4 4 6 6 6 6 7 9 10 9 8 4 5 4 5 8 9 6 5 5 5 6 7 6 8 8 8 10 11 11 11 8 6 9 8 3 5 9 5 1 3 4 4 5 6 6 5 5 3 2 2 2 2 1
5 5 3 4 7 7 7 7 6 6 6 5 5 6 7 8 8 4 3 6 6 3 3 5 4 5 5 4 5 6 1 3 4 3 1 3 5 5 5 4 5 9 12 9 7 5 4 3 3 6 8 7 7 6 6 7 7 7 9 8 8 10 10 10 9 7 7 8 8 7 8 8 3 5 6 6 6 7 8 8 7 5 4 3 2 2 2 2
8 7 6 6 6 5 5 6 5 5 5 6 6 5 6 7 6 4 5 8 9 6 3 5 6 6 5 5 4 1 3 6 7 6 5 6 5 3 3 2 1 7 11 9 7 7 6 4 4 7 8 7 8 9 8 7 7 9 10 10 10 10 10 9 8 7 8 9 9 9 9 6 4 8 8 8 8 8 9 9 8 6 5 4 3 3 2 2
8 6 5 5 4 3 4 4 4 5 4 3 4 5 6 5 3 4 6 7 9 8 4 5 8 7 5 5 1 5 9 10 11 10 9 9 8 7 6 5 6 5 8 9 8 8 8 6 5 7 8 6 8 9 8 7 8 9 8 9 12 12 10 9 8 7 8 9 8 8 5 0 6 8 8 8 9 9 8 8 7 6 5 5 4 3 3 2
Wind_Direction
17 16 14 11 8 5 4 354 303 279 303 330 336 342 345 348 352 359 7 8 11 19 30 43 40 33 31 26 24 12 355 320 247 183 183 192 193 195 196 186 173 178 178 164 171 183 191 206 219 243 255 254 276 288 208 202 225 233 249 233 183 90 84 18 66 95 164 156 137 148 164 148 141 140 131 130 124 123 124 124 106 83 101 115 121 133 139 142
15 14 12 8 3 358 349 331 295 267 275 290 300 315 322 331 340 349 1 5 8 15 26 37 34 27 22 21 24 20 33 70 90 122 180 188 184 178 175 167 159 169 165 163 183 189 198 207 212 227 252 267 290 314 244 194 231 254 265 186 57 57 86 0 45 71 100 135 136 148 161 151 142 144 153 149 136 135 124 133 129 106 112 122 128 136 140 144
14 12 9 5 0 351 341 325 296 275 271 274 283 293 302 315 326 339 354 1 4 11 22 30 28 22 18 24 23 33 83 97 88 86 143 169 171 169 170 165 158 166 157 173 191 197 219 219 212 232 269 278 331 327 266 162 215 296 291 111 81 105 98 44 51 55 38 116 143 147 151 146 140 149 164 156 147 148 125 133 148 132 132 136 137 141 144 147
14 11 8 5 359 348 340 324 300 283 273 271 275 279 289 299 311 327 341 353 360 7 18 23 20 16 17 25 24 48 112 132 100 85 106 139 157 170 180 186 182 176 159 180 194 196 210 209 216 259 278 280 58 260 187 125 223 41 343 37 64 128 98 56 55 61 62 135 149 147 151 146 143 157 165 154 143 148 128 121 142 144 145 147 145 147 149 150
13 11 6 4 0 353 343 328 311 293 279 274 274 275 280 287 299 314 327 342 353 1 12 17 15 13 15 21 30 38 251 200 106 101 91 106 144 168 185 193 187 182 167 182 194 191 190 204 246 265 275 290 333 235 100 88 206 85 42 46 48 25 96 80 62 64 90 133 149 153 155 145 148 162 174 167 104 91 113 106 116 141 149 151 150 151 152 153
12 10 5 2 360 355 346 336 323 304 291 282 276 276 277 281 290 300 314 329 343 354 3 11 12 9 15 21 32 16 316 10 93 159 143 98 128 165 194 194 186 182 170 181 191 189 191 227 265 281 291 295 330 343 68 93 234 89 62 67 58 50 85 101 85 74 101 141 154 149 143 150 164 161 171 188 89 74 103 106 112 134 146 150 150 153 155 156
11 8 3 1 358 355 348 339 328 316 306 293 284 280 277 279 282 290 302 314 332 339 351 0 2 4 12 14 19 28 11 55 85 155 147 118 137 159 209 198 191 184 174 186 194 193 208 256 295 310 300 291 6 21 76 131 244 355 86 78 69 72 84 103 105 93 106 137 144 138 156 169 180 157 161 192 146 100 111 112 118 133 144 149 151 155 156 156
11 7 3 359 355 354 347 339 331 320 313 306 297 287 282 281 278 282 288 296 313 312 338 341 351 1 4 6 354 255 90 71 95 106 94 166 182 202 218 197 194 187 184 194 196 201 230 279 324 307 298 335 13 24 140 167 137 52 85 90 84 85 83 93 102 106 116 127 140 162 170 163 165 149 162 175 155 137 128 122 126 137 147 152 154 156 155 156
11 7 3 359 355 352 346 340 330 321 317 311 306 299 292 286 278 275 274 278 279 281 316 318 345 353 351 359 327 264 92 79 142 106 60 18 206 221 211 198 191 187 193 193 188 204 253 301 353 318 317 358 0 83 156 240 62 62 85 104 98 97 91 94 103 109 120 122 153 181 170 146 152 201 177 156 151 150 140 135 135 142 151 156 157 157 156 159
9 6 2 358 355 351 347 339 329 323 317 311 312 310 302 292 280 269 265 264 255 259 287 305 342 337 340 348 309 278 86 96 168 126 7 341 203 208 201 193 183 187 193 182 179 189 290 340 4 313 288 347 38 77 84 342 63 87 105 108 101 106 104 112 121 121 127 116 145 194 175 144 158 208 173 142 166 162 150 145 143 147 153 157 158 156 158 161
6 4 1 357 353 350 346 338 330 322 316 313 315 314 310 298 276 259 256 256 246 254 270 296 321 313 325 327 302 339 88 156 155 148 253 263 195 190 188 185 177 182 181 169 175 181 280 356 345 296 258 156 94 93 86 72 96 114 125 120 117 126 119 128 138 135 149 125 132 194 173 153 169 193 131 123 168 167 157 150 150 151 152 157 157 154 160 162
2 0 358 356 352 348 345 338 330 322 317 314 315 318 317 305 283 256 245 246 239 246 253 278 293 301 311 299 292 2 125 168 142 152 217 170 182 172 169 177 174 175 172 168 173 174 237 4 326 301 278 235 165 124 112 117 127 131 181 169 128 153 140 126 157 157 164 147 164 191 183 180 176 158 92 127 161 166 163 155 155 154 151 157 157 155 162 164
359 357 354 354 350 347 343 338 331 323 316 313 318 322 319 315 293 253 234 234 230 238 249 269 280 303 307 291 277 63 188 200 163 137 122 126 150 157 161 167 164 164 163 163 162 168 229 8 329 311 260 252 126 102 126 139 157 154 230 259 150 181 150 106 169 168 155 144 180 200 201 184 156 104 103 144 159 167 165 159 159 157 154 159 160 159 162 165
354 353 351 350 348 346 343 337 332 323 314 312 317 321 324 322 305 280 250 238 229 238 248 264 285 314 307 296 63 179 182 210 179 141 122 121 129 140 148 153 154 159 159 152 160 185 234 5 325 261 228 277 127 151 159 157 187 194 278 270 254 223 110 83 150 174 168 149 192 208 209 163 130 100 117 151 164 169 165 160 162 159 159 161 164 165 163 167
348 348 347 347 346 345 342 338 333 323 312 310 314 323 324 317 316 308 265 252 245 248 254 266 292 315 288 221 112 141 139 153 161 147 136 132 134 135 140 149 152 157 158 156 173 189 155 27 279 209 157 140 171 186 191 166 181 218 324 293 352 21 108 94 109 179 182 154 196 224 230 136 111 95 120 159 170 173 168 162 164 164 164 165 166 170 167 167
343 343 342 343 344 342 342 339 334 325 312 303 305 318 320 318 324 320 299 280 258 251 253 265 288 304 285 182 126 144 134 140 154 152 152 150 151 147 145 152 156 165 164 163 181 187 162 138 244 222 164 162 188 216 217 175 148 163 322 35 23 15 86 98 104 145 151 156 177 212 241 108 91 81 113 164 174 177 178 168 170 168 167 169 169 172 170 166
339 340 339 339 340 340 342 340 336 327 309 296 298 313 321 317 318 323 318 287 259 249 254 264 278 291 277 146 138 148 135 145 155 154 157 157 154 143 144 157 168 179 179 183 195 199 213 204 207 211 206 207 220 239 212 176 124 107 345 35 54 29 39 89 128 145 153 187 178 195 247 47 55 53 107 171 182 184 191 178 175 172 171 174 173 174 173 171
336 338 338 337 336 337 339 340 338 327 307 296 294 311 317 315 316 312 296 273 255 253 263 249 230 254 204 170 162 141 143 153 159 164 164 159 155 147 147 164 171 180 187 200 205 204 208 206 222 230 205 204 218 230 217 87 38 17 3 2 42 47 50 76 118 150 161 184 177 192 271 32 348 308 106 188 195 195 200 189 183 177 173 177 179 178 174 175
332 334 336 337 334 333 335 338 339 328 306 288 295 321 313 307 303 290 275 268 253 257 276 211 205 272 99 156 155 140 159 163 163 167 167 164 162 160 160 158 170 186 191 196 192 196 210 208 218 236 213 194 202 236 299 28 13 345 349 343 347 27 59 70 97 145 164 177 170 171 144 159 263 247 145 209 207 204 206 198 198 190 180 180 184 183 175 179
331 330 331 334 333 331 331 336 338 327 300 283 310 323 301 292 277 249 265 270 257 264 285 240 224 273 49 153 157 157 162 165 170 170 172 172 163 160 164 165 175 190 200 201 185 186 221 230 217 228 202 165 199 252 311 350 349 319 312 316 342 31 74 82 104 148 179 205 175 168 166 191 244 225 166 216 217 210 209 203 205 204 197 191 190 187 180 182
334 331 330 330 331 330 327 334 337 323 287 277 312 322 313 323 298 328 335 281 255 262 273 249 231 243 230 165 157 159 158 165 174 174 178 174 169 171 167 176 186 188 197 208 196 175 216 238 225 221 95 107 255 284 296 303 304 298 299 305 330 57 81 90 107 144 188 236 179 173 191 197 218 209 178 207 223 215 211 207 207 208 210 207 202 198 190 186
339 336 334 330 330 330 324 332 334 316 269 247 104 5 326 25 317 333 331 292 265 264 258 230 224 229 217 189 176 174 173 174 170 176 185 177 186 192 169 186 207 184 175 199 215 189 209 234 224 184 113 243 270 287 277 280 285 284 287 292 312 90 106 118 132 142 184 243 156 171 219 213 204 197 183 201 221 221 213 216 217 213 215 217 215 210 205 198
343 340 337 334 332 329 323 327 327 313 262 216 171 225 214 137 30 348 322 287 276 258 233 216 220 223 211 207 200 189 186 181 171 178 189 185 194 203 182 194 211 176 172 196 211 204 205 224 223 195 184 235 251 256 262 267 261 266 279 285 324 107 171 136 147 160 182 249 339 245 244 231 203 195 192 202 212 214 209 217 223 223 224 224 223 221 216 209
343 341 339 337 334 330 324 319 312 307 278 222 209 214 205 162 5 356 315 277 271 223 213 208 210 215 205 206 198 190 191 188 178 178 187 190 188 191 197 199 201 193 191 201 213 225 216 182 212 219 208 233 251 240 243 256 234 216 243 289 334 71 296 41 129 160 180 211 260 281 252 213 192 198 202 200 202 205 202 210 217 220 227 231 231 231 227 219
339 337 337 337 335 332 324 315 290 298 301 242 228 216 204 244 353 351 310 267 236 176 192 193 196 206 198 194 182 184 191 185 182 175 181 193 185 172 190 200 211 204 179 190 211 234 220 134 136 214 212 225 242 241 234 253 249 194 133 341 330 87 128 125 143 168 208 188 194 269 265 137 150 204 202 183 192 204 203 208 214 214 220 227 231 233 231 226
336 333 332 333 334 330 329 312 261 302 315 254 239 220 216 279 340 341 305 262 202 150 163 177 184 177 179 182 168 177 199 177 175 174 177 193 195 190 191 181 219 237 152 183 215 240 202 141 181 217 214 217 232 245 228 233 259 218 92 22 320 149 154 156 161 190 263 98 143 240 268 87 138 166 156 167 196 209 205 210 215 213 213 217 224 229 229 227
336 330 326 329 329 324 322 267 259 298 306 247 233 217 219 266 324 332 287 241 189 140 148 156 169 164 163 170 169 184 184 144 160 179 182 191 191 213 228 175 199 216 159 206 217 196 175 169 193 213 216 216 224 233 199 210 254 309 77 45 155 156 174 172 179 209 292 82 147 200 248 281 232 122 127 178 207 210 210 214 215 213 212 214 218 221 223 224
336 328 324 326 325 318 311 279 265 272 252 237 218 211 218 250 310 301 266 240 147 126 139 128 141 158 149 164 181 203 102 139 165 174 179 195 188 210 240 207 218 182 173 231 211 122 170 190 188 199 210 211 210 51 106 207 249 60 75 103 141 167 185 183 204 221 189 213 190 169 226 268 235 133 144 190 208 207 211 215 217 215 213 215 216 214 216 220
335 327 326 328 326 320 307 288 262 239 233 213 201 204 205 226 275 254 258 265 147 146 135 129 143 157 151 164 187 207 162 167 189 146 167 197 193 207 259 243 255 230 191 245 265 99 136 188 182 210 221 191 82 51 60 241 249 99 124 148 135 163 178 199 226 203 207 248 262 112 264 284 261 144 148 193 199 152 176 189 205 215 216 218 219 212 209 213
334 329 331 334 334 326 313 295 252 231 209 192 192 183 182 207 246 235 233 236 156 135 122 144 151 158 167 174 186 198 191 171 125 144 164 189 192 209 266 270 255 253 215 236 256 175 127 146 218 252 269 68 77 79 93 215 120 137 169 173 159 172 178 204 229 224 240 248 204 110 282 292 282 139 112 104 92 62 48 105 135 188 212 219 221 215 208 209
335 332 336 340 340 334 328 293 235 215 191 188 175 162 175 199 245 247 211 136 172 140 147 167 156 165 184 191 190 186 192 168 146 163 171 176 189 204 227 224 220 231 223 216 220 201 182 192 196 181 139 115 119 117 113 133 151 175 203 195 193 191 188 210 216 237 256 245 111 114 227 263 269 290 77 100 114 70 2 354 40 123 193 213 219 219 214 211
337 335 343 349 348 344 332 246 213 193 181 176 163 167 190 203 224 242 163 157 204 154 150 161 158 177 193 207 205 178 187 184 167 181 188 185 194 198 209 215 194 205 218 199 184 181 188 188 152 134 154 177 171 140 135 161 185 213 218 205 214 201 200 228 219 236 258 203 112 128 190 250 263 278 29 149 152 97 15 341 345 3 286 209 214 220 218 214
340 342 352 355 352 346 322 228 195 187 175 164 165 183 214 226 216 234 191 185 100 58 34 116 158 182 192 209 202 179 191 187 174 192 197 195 207 202 207 226 242 255 244 190 180 176 173 161 160 163 169 199 213 195 174 182 195 213 214 219 234 220 225 235 209 226 246 135 115 133 180 254 259 261 39 146 142 100 63 358 348 5 0 244 218 222 218 215
344 351 356 353 353 346 327 202 185 183 168 164 176 196 214 225 206 79 221 164 55 30 121 84 216 214 210 218 189 176 202 195 178 195 196 198 218 211 206 214 227 255 268 219 214 203 201 170 172 178 154 182 211 243 268 206 190 207 232 255 264 276 269 269 260 269 292 109 131 158 201 266 273 124 63 69 114 115 104 75 22 28 46 8 229 226 221 216
350 359 359 0 11 11 17 148 172 173 165 171 193 204 206 220 201 160 208 84 39 333 273 288 256 223 207 213 191 190 224 206 182 199 207 204 215 213 212 204 201 221 246 226 185 210 252 179 132 134 107 176 205 229 266 258 203 186 218 244 262 307 300 300 321 325 325 299 177 179 231 287 304 179 176 145 142 133 121 123 85 50 60 65 89 204 218 219
359 2 8 20 31 35 70 121 155 166 169 186 208 207 208 234 25 77 40 12 347 335 312 246 217 223 204 189 188 193 215 213 186 198 209 211 223 219 218 211 192 204 226 229 159 190 237 133 119 141 151 181 222 207 207 254 241 159 202 218 155 4 296 278 273 287 287 275 242 199 253 252 165 196 193 197 192 159 158 164 107 59 44 68 67 71 144 222
13 16 28 35 37 48 83 115 145 163 182 214 219 212 213 80 40 35 29 347 322 327 300 252 184 231 217 192 192 185 185 195 189 200 203 197 217 218 215 221 207 207 221 238 246 217 250 151 131 163 164 146 222 200 185 239 264 218 206 162 109 53 276 276 270 238 250 263 259 271 286 292 271 234 173 200 226 194 180 166 121 109 47 58 66 65 55 42
1 335 32 26 31 59 92 119 141 167 201 230 222 233 266 149 74 32 14 339 312 293 284 271 168 266 233 211 194 170 177 189 182 200 210 187 187 198 208 214 204 208 221 233 236 178 271 237 132 150 150 133 176 202 177 185 235 275 305 137 170 226 217 232 274 277 272 284 286 109 313 306 299 358 125 194 231 209 182 156 134 121 75 42 55 66 51 35
352 219 62 15 28 74 117 124 134 186 218 227 218 208 238 206 111 19 321 316 288 271 279 291 321 266 245 246 202 155 182 201 184 196 212 196 177 174 202 212 192 194 207 218 225 174 241 260 140 142 144 141 180 208 198 175 185 233 210 180 218 275 278 252 279 293 294 303 327 334 295 241 74 18 6 358 251 197 170 142 96 62 66 44 35 48 42 34
347 251 175 24 35 93 113 130 157 214 222 230 248 190 141 247 247 246 264 279 268 263 282 315 295 253 255 267 267 176 197 218 209 210 208 192 190 176 188 205 190 176 188 205 222 202 194 246 198 135 146 181 198 208 235 197 174 194 207 201 203 213 259 258 247 269 293 304 320 313 300 61 73 28 353 27 121 142 124 114 94 58 57 51 38 32 34 36
345 267 111 37 77 110 112 173 190 228 231 230 269 231 148 291 281 258 233 238 257 256 274 292 280 279 291 270 249 200 215 225 214 220 213 192 212 211 183 198 194 163 170 197 210 207 200 222 221 164 173 200 173 93 335 325 261 234 233 222 212 204 232 254 235 209 255 292 312 315 308 27 81 65 17 76 121 131 126 134 113 84 71 59 47 35 33 34
348 303 32 2 208 128 196 236 184 226 244 225 295 246 288 303 277 264 242 226 241 236 238 265 264 265 272 262 262 274 246 233 212 215 221 206 220 222 158 180 192 175 180 197 188 184 201 230 230 216 200 155 80 71 354 314 289 268 268 261 246 231 235 256 269 219 209 259 294 295 294 29 94 102 97 99 116 129 135 149 130 103 92 77 55 42 35 29
342 326 321 320 284 175 264 251 171 207 232 102 13 248 249 265 256 255 247 230 233 226 220 241 251 248 250 252 263 264 242 236 225 220 227 222 221 177 124 167 188 190 198 197 162 154 173 233 226 233 206 131 105 110 144 198 230 238 236 235 253 259 257 274 302 317 263 245 233 261 271 109 105 118 125 127 139 155 163 167 152 113 99 90 68 46 29 22
324 311 301 329 2 233 262 268 215 220 193 148 247 238 222 246 257 258 257 242 235 236 234 241 242 237 240 250 255 258 249 236 226 219 236 242 190 92 137 181 191 199 207 208 167 170 188 218 215 227 218 193 186 175 169 183 214 235 224 196 236 253 247 258 273 277 266 258 251 271 283 90 114 136 145 151 167 184 183 169 152 118 102 96 77 49 19 14
319 290 247 330 5 290 277 321 315 274 214 219 251 244 226 231 232 248 278 272 248 254 259 252 245 240 246 250 248 253 256 249 231 216 240 244 168 111 181 195 197 206 217 280 161 171 188 211 205 229 234 217 217 211 199 201 205 219 210 189 219 226 211 225 246 240 248 240 218 255 283 73 120 150 164 166 178 200 193 172 171 166 151 144 111 59 21 17
318 299 262 305 19 284 255 4 304 281 275 261 253 239 240 237 206 215 265 258 231 252 265 259 257 250 240 241 246 245 239 235 232 234 249 239 182 120 170 191 200 210 217 199 178 177 192 211 208 234 249 248 251 176 77 274 224 215 211 201 212 217 210 222 247 254 255 237 222 236 261 290 153 153 169 181 183 201 198 181 188 193 185 175 147 102 52 37
301 326 350 325 312 247 194 151 267 277 305 291 272 236 245 252 232 199 219 227 233 263 262 252 249 247 235 232 244 246 233 224 225 238 251 246 201 104 152 189 201 197 184 192 189 185 205 207 206 227 238 251 285 118 162 249 251 251 235 212 208 207 207 219 238 258 278 257 258 225 205 255 253 148 163 182 181 199 201 187 189 191 182 161 127 116 104 69
289 335 348 319 300 259 227 50 341 307 277 261 270 268 252 254 254 230 210 230 248 255 259 235 220 234 254 249 253 249 232 223 222 227 240 241 216 155 162 186 193 179 180 191 188 193 230 211 199 215 223 227 242 219 217 237 251 259 245 224 210 203 209 224 236 242 237 253 276 45 172 236 253 180 155 153 168 191 182 167 168 164 159 153 138 150 153 134
302 307 297 284 282 284 296 311 309 286 263 245 249 251 247 250 252 247 252 262 245 229 253 249 219 235 274 258 251 246 232 235 230 215 217 244 232 207 182 182 182 182 190 194 184 205 254 220 189 215 220 207 193 200 217 229 234 237 234 227 214 210 217 228 236 236 231 249 269 270 234 245 250 167 120 115 139 159 149 148 158 159 163 172 177 186 184 185
300 299 306 298 278 274 279 277 270 266 250 228 236 240 239 247 252 252 255 260 253 216 225 268 294 322 305 262 237 236 246 338 283 249 353 273 238 223 208 194 175 185 197 201 182 191 235 217 184 218 223 207 191 192 205 220 228 230 226 221 219 224 226 229 239 241 230 243 254 250 251 252 215 125 124 132 141 153 157 161 163 162 171 190 211 219 205 198
274 275 288 295 283 268 262 257 252 261 250 226 228 235 233 237 249 278 267 253 259 268 289 315 330 329 292 238 214 238 8 343 303 300 307 281 271 283 261 272 262 195 196 199 188 190 207 200 181 212 231 219 195 198 206 210 229 240 234 223 219 226 232 233 237 237 237 251 250 239 250 252 162 136 142 150 159 171 173 167 164 164 174 197 221 233 229 224
274 271 268 270 274 255 249 251 238 246 260 253 242 243 243 240 242 285 271 240 238 253 285 326 328 321 273 227 187 359 337 315 296 292 288 275 276 281 268 273 286 246 206 198 196 196 203 204 197 216 238 229 194 201 211 209 227 240 236 229 225 225 235 241 240 234 236 252 258 249 256 205 130 149 162 163 172 183 179 169 168 168 177 199 222 238 251 252
Height
1532 1531 1530 1529 1529 1528 1528 1527 1527 1527 1526 1526 1526 1525 1525 1524 1523 1523 1522 1521 1520 1519 1519 1518 1517 1517 1516 1516 1515 1515 1514 1514 1514 1514 1515 1515 1515 1516 1516 1517 1518 1519 1520 1520 1521 1522 1522 1522 1522 1522 1522 1521 1520 1519 1519 1519 1519 1519 1518 1520 1521 1520 1521 1518 1518 1525 1528 1525 1523 1526 1526 1526 1529 1530 1531 1531 1532 1533 1533 1534 1535 1537 1537 1539 1540 1543 1545 1546
1532 1531 1530 1529 1529 1528 1528 1527 1527 1526 1526 1526 1525 1525 1524 1524 1523 1523 1522 1521 1521 1520 1519 1518 1518 1517 1517 1516 1515 1515 1514 1513 1514 1514 1515 1515 1515 1516 1517 1517 1518 1519 1520 1521 1521 1522 1523 1523 1523 1522 1522 1520 1519 1518 1518 1518 1518 1518 1516 1520 1526 1524 1523 1519 1518 1521 1522 1522 1523 1525 1526 1526 1528 1529 1531 1531 1532 1532 1533 1534 1536 1538 1539 1540 1542 1544 1546 1547
1532 1531 1530 1529 1529 1528 1527 1527 1526 1526 1526 1525 1525 1525 1524 1523 1523 1522 1522 1521 1520 1520 1519 1519 1518 1517 1517 1516 1515 1515 1514 1514 1514 1515 1515 1515 1516 1516 1517 1518 1518 1519 1520 1521 1522 1523 1523 1523 1523 1522 1521 1518 1517 1517 1516 1516 1516 1516 1514 1521 1527 1522 1520 1520 1520 1522 1522 1523 1523 1526 1527 1527 1529 1530 1530 1530 1531 1531 1531 1533 1534 1537 1539 1541 1543 1545 1547 1548
1532 1531 1530 1530 1529 1528 1527 1527 1526 1526 1525 1525 1524 1524 1524 1523 1522 1522 1522 1521 1521 1520 1519 1519 1518 1518 1517 1516 1516 1515 1515 1514 1514 1516 1515 1515 1516 1516 1517 1518 1519 1520 1520 1521 1521 1521 1522 1522 1522 1522 1520 1516 1516 1517 1514 1516 1516 1515 1517 1521 1523 1518 1520 1524 1522 1523 1524 1524 1525 1526 1527 1528 1529 1530 1531 1530 1531 1532 1530 1531 1533 1535 1539 1541 1543 1545 1547 1548
1532 1531 1530 1530 1529 1528 1527 1526 1526 1525 1524 1524 1524 1523 1523 1522 1522 1522 1521 1521 1520 1520 1519 1519 1518 1518 1517 1516 1516 1515 1514 1514 1515 1516 1516 1516 1516 1517 1518 1518 1519 1520 1520 1521 1520 1521 1522 1522 1522 1521 1519 1514 1514 1515 1514 1515 1515 1517 1520 1520 1519 1517 1521 1524 1523 1524 1524 1525 1526 1526 1527 1528 1529 1530 1531 1530 1532 1533 1530 1532 1533 1535 1539 1541 1543 1546 1547 1548
1532 1531 1530 1529 1528 1528 1527 1526 1525 1524 1524 1523 1523 1523 1522 1522 1521 1521 1521 1520 1520 1520 1519 1518 1518 1518 1517 1516 1516 1515 1514 1514 1515 1516 1516 1516 1516 1517 1518 1518 1519 1520 1520 1521 1521 1522 1522 1522 1521 1519 1517 1514 1513 1513 1514 1516 1515 1519 1522 1520 1520 1520 1521 1524 1525 1525 1525 1526 1526 1527 1527 1528 1528 1530 1531 1530 1531 1532 1532 1533 1535 1536 1539 1541 1544 1546 1547 1548
1532 1531 1530 1529 1528 1527 1526 1525 1524 1524 1523 1523 1522 1522 1521 1521 1521 1520 1520 1520 1520 1519 1519 1518 1518 1518 1517 1516 1516 1515 1513 1514 1516 1516 1516 1516 1517 1517 1517 1518 1519 1520 1520 1521 1521 1522 1522 1521 1520 1518 1516 1514 1513 1514 1515 1516 1514 1517 1521 1520 1521 1522 1522 1525 1525 1525 1526 1526 1527 1528 1528 1528 1528 1529 1531 1531 1532 1533 1533 1534 1536 1538 1540 1542 1544 1546 1547 1548
1532 1531 1530 1529 1528 1527 1526 1525 1524 1523 1522 1522 1521 1521 1520 1520 1520 1520 1519 1519 1519 1519 1519 1518 1518 1518 1517 1516 1515 1514 1513 1515 1516 1516 1516 1516 1517 1517 1518 1518 1519 1519 1520 1521 1522 1522 1522 1521 1520 1519 1516 1515 1515 1515 1515 1516 1514 1515 1519 1521 1522 1523 1524 1524 1525 1526 1527 1528 1529 1529 1529 1528 1529 1529 1530 1531 1532 1533 1534 1535 1537 1539 1540 1542 1544 1546 1547 1549
1532 1531 1530 1529 1527 1526 1525 1524 1523 1522 1521 1521 1520 1520 1519 1519 1519 1519 1519 1519 1519 1518 1518 1518 1518 1518 1517 1517 1515 1512 1513 1516 1516 1516 1516 1516 1516 1517 1517 1518 1519 1519 1520 1521 1522 1522 1522 1520 1520 1519 1517 1516 1515 1515 1515 1516 1517 1516 1519 1521 1521 1524 1524 1525 1526 1527 1527 1528 1529 1529 1528 1529 1530 1530 1530 1530 1532 1533 1534 1536 1537 1539 1541 1542 1544 1546 1547 1549
1532 1531 1530 1528 1527 1526 1525 1524 1522 1521 1521 1520 1519 1519 1519 1518 1518 1518 1518 1518 1518 1518 1518 1518 1518 1517 1516 1517 1514 1511 1514 1516 1516 1516 1516 1516 1516 1516 1517 1518 1518 1519 1520 1521 1522 1523 1522 1521 1521 1520 1519 1517 1516 1516 1516 1516 1519 1518 1518 1520 1521 1524 1525 1526 1526 1527 1528 1528 1529 1529 1528 1529 1530 1531 1532 1531 1532 1533 1534 1536 1538 1539 1541 1542 1544 1546 1547 1549
1533 1531 1530 1528 1527 1525 1524 1523 1522 1521 1520 1519 1518 1518 1518 1518 1517 1517 1517 1517 1518 1517 1517 1517 1517 1517 1516 1516 1513 1511 1514 1516 1515 1516 1515 1515 1515 1516 1517 1517 1518 1520 1521 1522 1522 1523 1522 1522 1521 1520 1518 1517 1517 1518 1517 1517 1519 1518 1519 1520 1522 1523 1525 1526 1526 1527 1527 1528 1529 1528 1527 1529 1530 1531 1532 1531 1531 1533 1534 1535 1537 1539 1540 1542 1544 1546 1547 1549
1533 1531 1529 1528 1526 1525 1524 1522 1521 1520 1519 1518 1518 1517 1517 1517 1517 1517 1517 1517 1517 1517 1517 1517 1517 1516 1516 1515 1514 1512 1514 1515 1515 1515 1515 1515 1515 1515 1516 1517 1518 1520 1522 1523 1523 1522 1521 1521 1521 1520 1519 1517 1517 1518 1518 1519 1518 1519 1519 1520 1523 1523 1525 1526 1526 1527 1526 1528 1528 1527 1531 1531 1529 1530 1530 1531 1532 1532 1533 1535 1536 1538 1540 1542 1544 1546 1548 1549
1532 1531 1529 1528 1526 1524 1523 1522 1521 1520 1518 1518 1517 1517 1517 1516 1516 1516 1516 1516 1516 1516 1516 1516 1516 1516 1515 1514 1513 1513 1514 1514 1515 1515 1515 1515 1515 1515 1516 1517 1518 1519 1521 1522 1522 1522 1521 1521 1520 1520 1519 1517 1517 1518 1519 1518 1518 1519 1517 1519 1523 1526 1528 1526 1525 1527 1526 1528 1526 1529 1539 1535 1527 1528 1529 1530 1532 1532 1533 1534 1536 1537 1539 1542 1544 1546 1547 1548
1532 1531 1529 1527 1526 1524 1523 1521 1520 1519 1518 1517 1517 1517 1516 1516 1516 1515 1515 1515 1515 1516 1516 1516 1516 1515 1515 1513 1513 1514 1514 1514 1515 1515 1515 1516 1516 1516 1517 1517 1518 1519 1520 1520 1521 1521 1520 1520 1520 1520 1519 1518 1517 1518 1517 1517 1517 1518 1519 1519 1518 1525 1532 1526 1524 1526 1526 1528 1526 1529 1539 1535 1527 1527 1529 1531 1532 1532 1532 1533 1535 1537 1539 1541 1543 1545 1546 1547
1532 1530 1529 1527 1525 1524 1522 1521 1519 1518 1517 1517 1516 1516 1516 1515 1515 1515 1515 1514 1515 1515 1515 1515 1515 1515 1514 1512 1513 1513 1513 1514 1514 1515 1516 1516 1517 1518 1518 1518 1519 1519 1520 1520 1520 1520 1520 1520 1520 1518 1518 1518 1518 1518 1517 1517 1516 1516 1522 1524 1516 1520 1530 1527 1524 1525 1527 1528 1525 1530 1536 1532 1527 1527 1529 1531 1532 1532 1532 1533 1535 1536 1538 1540 1542 1544 1545 1547
1531 1530 1528 1526 1525 1523 1521 1520 1519 1518 1517 1516 1516 1516 1515 1515 1515 1514 1514 1514 1514 1514 1514 1514 1515 1515 1512 1511 1513 1513 1513 1514 1514 1515 1516 1517 1518 1519 1519 1519 1519 1520 1520 1521 1520 1520 1520 1520 1519 1519 1518 1518 1517 1517 1518 1521 1521 1517 1519 1524 1520 1519 1522 1525 1527 1525 1525 1527 1526 1531 1535 1531 1527 1527 1530 1532 1532 1533 1532 1533 1534 1535 1537 1539 1541 1543 1544 1546
1530 1529 1527 1526 1524 1522 1521 1519 1518 1517 1516 1516 1516 1515 1515 1515 1514 1514 1513 1513 1513 1513 1514 1514 1514 1514 1512 1511 1513 1513 1513 1514 1514 1515 1516 1517 1518 1518 1519 1520 1520 1521 1521 1521 1521 1521 1520 1519 1520 1519 1517 1516 1514 1514 1522 1528 1527 1521 1517 1519 1521 1520 1520 1526 1531 1527 1525 1527 1528 1530 1531 1530 1529 1528 1531 1532 1533 1534 1533 1533 1533 1535 1537 1538 1540 1542 1543 1545
1529 1528 1526 1525 1523 1522 1520 1519 1518 1516 1516 1515 1515 1515 1515 1514 1514 1513 1513 1512 1513 1513 1513 1512 1513 1515 1513 1511 1511 1512 1513 1514 1514 1515 1516 1517 1517 1518 1520 1519 1520 1521 1521 1521 1520 1520 1520 1518 1517 1516 1515 1517 1515 1516 1524 1528 1525 1523 1521 1520 1519 1519 1520 1525 1529 1527 1526 1529 1530 1530 1530 1532 1532 1529 1531 1533 1533 1534 1533 1533 1534 1534 1536 1538 1539 1540 1542 1544
1528 1526 1525 1524 1522 1521 1519 1518 1517 1516 1515 1515 1515 1514 1514 1513 1513 1512 1512 1512 1512 1511 1510 1510 1511 1512 1511 1510 1510 1512 1512 1513 1514 1515 1516 1516 1517 1519 1519 1519 1520 1520 1520 1519 1518 1518 1518 1516 1518 1519 1517 1517 1516 1515 1518 1519 1520 1522 1522 1522 1521 1521 1523 1523 1525 1525 1525 1529 1531 1531 1534 1536 1534 1532 1532 1533 1533 1534 1533 1533 1534 1534 1535 1537 1538 1539 1541 1543
1526 1525 1524 1523 1521 1520 1519 1517 1516 1515 1515 1514 1514 1514 1513 1512 1510 1509 1510 1510 1509 1508 1507 1508 1509 1508 1509 1509 1511 1511 1511 1513 1514 1515 1516 1516 1518 1518 1519 1519 1519 1519 1518 1516 1515 1516 1517 1519 1519 1516 1513 1513 1514 1513 1513 1514 1517 1519 1518 1519 1519 1521 1525 1525 1525 1524 1522 1527 1529 1528 1533 1536 1535 1532 1531 1532 1532 1532 1533 1533 1534 1534 1535 1535 1537 1538 1540 1542
1525 1524 1522 1521 1520 1519 1518 1516 1515 1514 1514 1514 1514 1514 1513 1512 1510 1510 1510 1508 1506 1506 1506 1507 1507 1508 1508 1509 1510 1510 1511 1513 1514 1515 1516 1516 1517 1517 1518 1518 1517 1517 1516 1514 1514 1515 1519 1521 1515 1509 1509 1511 1512 1512 1513 1514 1517 1519 1518 1518 1517 1520 1525 1525 1525 1525 1523 1526 1527 1525 1531 1535 1533 1530 1530 1531 1532 1530 1530 1532 1533 1534 1535 1535 1536 1537 1539 1541
1524 1522 1521 1520 1519 1517 1516 1515 1514 1514 1513 1513 1513 1514 1513 1513 1512 1512 1511 1507 1505 1505 1505 1505 1505 1506 1507 1508 1509 1510 1511 1511 1512 1515 1514 1516 1517 1515 1515 1516 1515 1514 1513 1515 1517 1518 1522 1520 1511 1507 1509 1511 1513 1513 1514 1515 1517 1518 1516 1516 1517 1519 1525 1527 1525 1524 1524 1526 1526 1524 1528 1529 1526 1526 1528 1529 1529 1529 1530 1530 1532 1533 1534 1535 1535 1537 1538 1540
1523 1521 1520 1519 1517 1517 1515 1514 1514 1513 1513 1513 1513 1514 1513 1512 1512 1512 1512 1508 1504 1502 1503 1503 1504 1505 1506 1507 1508 1509 1509 1508 1510 1513 1514 1515 1515 1514 1514 1514 1513 1513 1514 1517 1517 1520 1522 1515 1506 1505 1509 1513 1514 1514 1515 1516 1517 1517 1516 1516 1517 1518 1523 1527 1526 1525 1525 1525 1525 1525 1526 1523 1520 1523 1525 1526 1527 1527 1529 1530 1531 1532 1533 1534 1535 1536 1537 1539
1522 1520 1518 1517 1516 1516 1514 1513 1513 1512 1513 1512 1512 1513 1512 1512 1512 1511 1511 1507 1502 1500 1501 1502 1503 1504 1505 1505 1506 1507 1507 1507 1508 1510 1513 1514 1513 1514 1513 1511 1512 1514 1514 1514 1514 1516 1515 1508 1505 1506 1510 1513 1515 1515 1516 1517 1515 1512 1514 1515 1516 1517 1520 1523 1525 1526 1525 1526 1526 1526 1528 1523 1519 1523 1523 1521 1524 1525 1527 1529 1530 1531 1532 1533 1534 1535 1536 1537
1521 1519 1517 1515 1515 1514 1513 1513 1512 1512 1512 1512 1512 1512 1512 1512 1511 1511 1510 1506 1501 1499 1499 1501 1501 1502 1503 1504 1505 1506 1506 1506 1507 1508 1511 1512 1512 1513 1512 1510 1512 1513 1512 1512 1514 1514 1509 1506 1507 1510 1511 1512 1515 1515 1513 1515 1513 1508 1511 1513 1513 1516 1520 1522 1525 1526 1528 1531 1527 1526 1536 1532 1518 1519 1521 1518 1522 1523 1524 1526 1527 1529 1530 1531 1532 1533 1535 1536
1520 1518 1515 1514 1513 1512 1512 1511 1511 1512 1511 1511 1512 1511 1512 1512 1510 1511 1509 1505 1500 1496 1498 1500 1500 1501 1502 1503 1504 1505 1507 1506 1506 1508 1510 1512 1512 1511 1512 1511 1510 1510 1510 1510 1512 1510 1507 1506 1508 1511 1512 1512 1516 1514 1509 1511 1512 1511 1512 1511 1510 1514 1519 1521 1524 1526 1528 1531 1527 1524 1537 1537 1522 1518 1518 1518 1522 1522 1521 1522 1523 1526 1527 1528 1530 1531 1533 1534
1519 1516 1514 1512 1511 1511 1511 1510 1510 1511 1510 1511 1510 1510 1512 1511 1511 1511 1509 1510 1503 1494 1496 1499 1499 1500 1500 1502 1503 1505 1507 1505 1505 1508 1509 1511 1512 1511 1511 1509 1510 1510 1508 1510 1514 1509 1505 1509 1510 1511 1512 1513 1514 1512 1506 1507 1512 1514 1511 1509 1511 1514 1518 1519 1520 1523 1523 1525 1527 1523 1528 1534 1528 1521 1518 1518 1522 1522 1521 1521 1520 1522 1525 1525 1527 1528 1530 1532
1517 1515 1512 1510 1510 1509 1509 1509 1509 1509 1509 1509 1508 1511 1511 1510 1512 1510 1511 1517 1507 1492 1494 1497 1498 1499 1500 1502 1502 1503 1504 1502 1504 1508 1508 1509 1511 1510 1510 1507 1507 1507 1506 1511 1515 1508 1504 1509 1510 1510 1512 1512 1509 1506 1502 1505 1512 1514 1509 1509 1511 1513 1515 1515 1516 1520 1520 1524 1531 1525 1524 1534 1530 1520 1518 1518 1520 1521 1520 1519 1518 1518 1521 1523 1524 1526 1527 1530
1515 1512 1510 1509 1508 1507 1507 1507 1507 1507 1508 1507 1508 1510 1509 1511 1512 1507 1511 1516 1502 1491 1494 1496 1498 1500 1500 1501 1502 1501 1501 1501 1502 1505 1507 1509 1510 1509 1509 1506 1505 1506 1506 1508 1510 1506 1504 1506 1506 1506 1508 1507 1504 1504 1503 1505 1510 1511 1509 1509 1510 1512 1513 1514 1516 1519 1522 1529 1533 1526 1524 1533 1528 1516 1517 1520 1518 1518 1515 1513 1514 1516 1518 1520 1521 1523 1525 1527
1513 1510 1509 1507 1506 1506 1505 1505 1506 1506 1506 1507 1508 1509 1509 1511 1510 1511 1519 1514 1496 1492 1495 1495 1497 1498 1498 1501 1501 1500 1500 1500 1502 1504 1506 1508 1509 1509 1508 1507 1506 1506 1506 1506 1506 1504 1503 1505 1505 1505 1505 1503 1504 1506 1506 1506 1507 1508 1509 1511 1514 1514 1513 1516 1516 1517 1529 1536 1531 1525 1525 1532 1530 1515 1512 1518 1516 1513 1512 1510 1512 1513 1516 1518 1519 1521 1523 1524
1512 1509 1507 1506 1505 1504 1504 1504 1505 1505 1506 1506 1507 1508 1510 1509 1507 1514 1519 1504 1493 1495 1495 1494 1496 1496 1497 1499 1499 1500 1499 1500 1500 1503 1506 1506 1508 1509 1508 1509 1509 1508 1509 1507 1506 1503 1503 1507 1505 1503 1504 1503 1505 1508 1508 1506 1506 1508 1510 1513 1519 1521 1520 1523 1522 1524 1538 1542 1532 1525 1525 1531 1534 1519 1509 1513 1512 1509 1511 1511 1511 1512 1514 1516 1517 1519 1520 1521
1510 1508 1506 1505 1504 1503 1503 1503 1503 1504 1505 1505 1507 1508 1508 1510 1512 1511 1505 1496 1498 1499 1493 1494 1495 1493 1496 1496 1496 1498 1498 1500 1499 1500 1502 1503 1505 1506 1506 1506 1505 1510 1513 1507 1505 1505 1504 1503 1501 1502 1504 1503 1504 1509 1512 1510 1508 1509 1511 1514 1523 1532 1537 1539 1538 1537 1539 1537 1530 1526 1528 1532 1529 1515 1507 1510 1510 1509 1510 1510 1510 1511 1513 1514 1515 1517 1518 1520
1509 1508 1506 1505 1503 1502 1502 1502 1502 1504 1505 1505 1508 1506 1506 1514 1514 1504 1495 1495 1500 1497 1492 1494 1494 1493 1497 1497 1496 1496 1497 1499 1498 1498 1498 1499 1502 1502 1501 1499 1498 1505 1509 1503 1503 1506 1506 1504 1501 1504 1506 1501 1501 1507 1513 1513 1510 1511 1511 1514 1521 1529 1543 1545 1538 1535 1533 1530 1527 1525 1530 1532 1520 1509 1506 1507 1507 1508 1509 1510 1511 1512 1513 1514 1514 1515 1517 1518
1509 1507 1506 1504 1503 1502 1501 1500 1501 1503 1504 1505 1506 1505 1510 1516 1508 1498 1496 1495 1495 1494 1493 1495 1495 1495 1497 1496 1494 1493 1496 1498 1495 1497 1499 1499 1504 1502 1499 1499 1498 1500 1503 1503 1503 1503 1509 1510 1503 1502 1503 1500 1499 1500 1503 1503 1506 1507 1504 1509 1514 1515 1528 1533 1525 1525 1526 1527 1530 1531 1533 1528 1519 1515 1509 1504 1506 1508 1509 1511 1511 1512 1512 1513 1514 1514 1516 1516
1508 1507 1506 1504 1503 1501 1500 1501 1501 1502 1504 1505 1503 1505 1512 1512 1501 1496 1498 1495 1495 1496 1494 1493 1495 1497 1497 1495 1492 1490 1494 1497 1494 1496 1499 1499 1502 1500 1496 1496 1496 1499 1501 1505 1504 1501 1508 1507 1497 1497 1499 1498 1500 1498 1495 1499 1506 1505 1501 1509 1514 1507 1511 1520 1519 1519 1520 1523 1528 1530 1526 1515 1511 1513 1506 1504 1507 1507 1509 1511 1510 1512 1512 1512 1514 1514 1515 1516
1508 1507 1506 1504 1503 1502 1501 1501 1501 1502 1504 1503 1503 1505 1505 1501 1497 1497 1498 1497 1498 1498 1496 1494 1494 1496 1495 1494 1494 1493 1492 1494 1494 1497 1498 1496 1496 1495 1493 1491 1491 1496 1498 1501 1502 1501 1507 1506 1497 1498 1500 1497 1499 1498 1496 1502 1507 1506 1507 1511 1509 1500 1504 1517 1523 1520 1521 1529 1528 1523 1518 1508 1508 1511 1505 1506 1509 1507 1509 1509 1509 1512 1511 1512 1514 1514 1515 1515
1508 1508 1507 1505 1504 1503 1502 1502 1502 1504 1504 1502 1503 1503 1498 1496 1497 1497 1498 1499 1499 1498 1498 1497 1494 1495 1494 1492 1493 1493 1493 1494 1495 1496 1496 1496 1495 1492 1492 1491 1489 1491 1492 1493 1497 1496 1501 1504 1498 1498 1502 1500 1498 1498 1497 1498 1501 1506 1510 1505 1501 1504 1506 1513 1526 1530 1530 1535 1529 1518 1516 1513 1514 1518 1512 1509 1511 1509 1508 1507 1509 1511 1511 1511 1513 1514 1515 1515
1508 1508 1507 1506 1505 1504 1503 1503 1504 1505 1504 1502 1502 1501 1498 1497 1498 1498 1499 1499 1499 1498 1498 1497 1494 1493 1492 1491 1489 1488 1492 1495 1494 1495 1495 1495 1494 1488 1488 1490 1488 1488 1489 1490 1496 1495 1496 1505 1502 1496 1500 1501 1497 1500 1503 1500 1498 1501 1502 1498 1502 1517 1520 1517 1527 1535 1535 1537 1529 1518 1517 1515 1515 1516 1511 1510 1512 1510 1508 1508 1509 1510 1511 1512 1513 1514 1516 1515
1508 1507 1507 1506 1505 1505 1504 1505 1505 1505 1504 1503 1502 1501 1499 1498 1498 1499 1500 1499 1499 1499 1498 1496 1495 1493 1492 1490 1488 1487 1491 1492 1491 1493 1493 1494 1493 1486 1484 1487 1487 1488 1488 1489 1494 1494 1495 1506 1507 1497 1496 1500 1499 1501 1506 1505 1501 1499 1499 1498 1501 1510 1517 1518 1520 1523 1527 1533 1531 1524 1521 1516 1512 1508 1508 1510 1509 1508 1509 1510 1510 1510 1512 1513 1514 1515 1516 1516
1508 1506 1506 1506 1505 1505 1505 1505 1505 1504 1503 1502 1500 1499 1500 1499 1498 1499 1500 1499 1498 1498 1497 1495 1496 1495 1493 1490 1488 1488 1489 1489 1488 1490 1490 1490 1490 1487 1483 1484 1486 1488 1489 1489 1491 1493 1495 1503 1508 1502 1498 1502 1503 1500 1500 1501 1502 1503 1504 1505 1506 1507 1510 1514 1515 1514 1519 1527 1531 1532 1526 1515 1508 1506 1506 1509 1507 1506 1509 1510 1511 1512 1513 1514 1515 1516 1516 1516
1508 1505 1505 1506 1505 1505 1506 1505 1503 1502 1501 1500 1500 1499 1500 1500 1499 1498 1499 1499 1498 1496 1496 1496 1496 1495 1494 1492 1490 1488 1489 1489 1487 1488 1488 1487 1488 1487 1483 1481 1484 1486 1490 1492 1492 1492 1496 1500 1503 1503 1502 1503 1501 1495 1494 1495 1496 1498 1500 1501 1504 1507 1510 1520 1525 1517 1514 1520 1524 1530 1530 1516 1506 1505 1505 1505 1505 1506 1508 1510 1511 1512 1514 1516 1516 1516 1517 1517
1508 1505 1505 1506 1505 1505 1505 1502 1502 1502 1500 1499 1500 1500 1501 1501 1499 1498 1497 1498 1497 1496 1496 1496 1495 1494 1494 1492 1490 1489 1490 1488 1486 1486 1486 1484 1483 1482 1481 1481 1483 1484 1487 1491 1490 1488 1490 1495 1500 1501 1499 1498 1497 1494 1495 1496 1494 1495 1497 1495 1496 1500 1505 1518 1527 1519 1514 1518 1517 1523 1529 1517 1505 1504 1504 1504 1505 1507 1509 1510 1511 1512 1515 1516 1516 1516 1517 1517
1510 1507 1506 1506 1505 1505 1504 1501 1501 1502 1499 1499 1500 1500 1500 1500 1499 1497 1497 1497 1496 1495 1495 1495 1493 1493 1491 1490 1490 1490 1489 1488 1486 1484 1483 1482 1480 1479 1479 1482 1483 1482 1484 1487 1488 1488 1491 1496 1501 1503 1498 1495 1495 1494 1494 1495 1496 1498 1497 1495 1497 1499 1498 1505 1511 1510 1513 1516 1516 1524 1529 1518 1507 1504 1504 1506 1507 1508 1510 1511 1511 1513 1515 1516 1517 1516 1516 1516
1511 1509 1507 1506 1505 1505 1504 1500 1499 1499 1498 1500 1501 1499 1499 1499 1498 1497 1496 1495 1495 1494 1494 1493 1491 1491 1490 1488 1490 1489 1489 1490 1487 1481 1481 1482 1480 1479 1480 1482 1482 1482 1482 1483 1484 1488 1494 1497 1501 1507 1510 1509 1506 1504 1502 1500 1499 1499 1496 1496 1498 1497 1499 1503 1504 1509 1516 1513 1513 1523 1523 1512 1507 1506 1505 1507 1508 1508 1510 1511 1512 1514 1514 1516 1516 1516 1516 1516
1510 1508 1506 1506 1506 1505 1503 1501 1500 1499 1499 1501 1501 1499 1498 1498 1497 1497 1496 1495 1494 1493 1493 1492 1490 1489 1489 1488 1490 1488 1487 1489 1487 1482 1481 1481 1479 1480 1481 1481 1482 1480 1480 1481 1480 1483 1491 1496 1498 1506 1516 1520 1519 1515 1508 1501 1497 1496 1496 1500 1500 1498 1502 1507 1507 1514 1520 1513 1511 1518 1516 1507 1506 1507 1506 1507 1508 1509 1509 1511 1513 1514 1514 1515 1515 1516 1516 1516
1512 1508 1505 1504 1504 1504 1504 1503 1503 1501 1500 1501 1501 1498 1498 1497 1495 1496 1496 1495 1494 1493 1493 1491 1489 1489 1489 1488 1490 1489 1485 1484 1485 1484 1482 1480 1478 1479 1481 1481 1482 1481 1481 1482 1481 1482 1488 1493 1494 1498 1504 1505 1507 1504 1498 1494 1495 1497 1498 1500 1501 1499 1500 1504 1508 1512 1513 1512 1513 1512 1508 1508 1507 1506 1508 1507 1507 1509 1509 1510 1512 1513 1514 1515 1515 1516 1516 1515
1513 1510 1508 1507 1506 1503 1502 1503 1504 1502 1501 1502 1501 1498 1498 1496 1494 1495 1495 1494 1493 1493 1492 1490 1488 1489 1489 1488 1489 1488 1484 1482 1483 1484 1483 1480 1477 1478 1481 1481 1481 1482 1482 1482 1481 1483 1490 1494 1492 1494 1495 1493 1493 1494 1492 1493 1495 1496 1497 1499 1500 1499 1500 1504 1508 1507 1505 1513 1516 1507 1505 1511 1507 1502 1505 1506 1505 1507 1507 1508 1511 1512 1513 1514 1514 1515 1515 1515
1514 1512 1512 1512 1509 1504 1502 1503 1504 1503 1503 1503 1501 1499 1499 1497 1495 1495 1494 1492 1492 1492 1491 1490 1488 1488 1487 1488 1489 1487 1484 1484 1484 1483 1482 1480 1479 1479 1481 1481 1481 1481 1482 1482 1481 1482 1488 1492 1488 1490 1493 1491 1491 1493 1492 1493 1495 1493 1494 1496 1497 1499 1501 1503 1504 1502 1503 1511 1512 1505 1507 1511 1505 1500 1502 1502 1503 1505 1506 1508 1510 1511 1513 1514 1514 1515 1515 1515
1515 1513 1512 1512 1510 1506 1505 1505 1506 1505 1503 1502 1501 1499 1498 1497 1495 1494 1494 1494 1492 1490 1491 1490 1488 1487 1486 1487 1489 1488 1486 1486 1486 1483 1481 1481 1480 1479 1481 1482 1481 1480 1480 1481 1482 1482 1486 1490 1488 1489 1493 1492 1493 1494 1493 1493 1495 1495 1494 1494 1495 1497 1499 1500 1499 1498 1501 1505 1504 1503 1508 1507 1500 1498 1500 1502 1503 1505 1506 1509 1510 1511 1513 1513 1513 1514 1514 1514
1516 1514 1513 1513 1510 1507 1507 1506 1506 1504 1501 1501 1501 1498 1496 1496 1495 1493 1494 1495 1493 1490 1490 1491 1489 1487 1486 1485 1487 1486 1485 1485 1486 1483 1483 1483 1481 1478 1479 1479 1478 1479 1480 1480 1481 1483 1487 1492 1491 1490 1493 1495 1494 1494 1494 1494 1495 1496 1495 1493 1494 1496 1497 1498 1498 1497 1501 1504 1502 1503 1508 1505 1498 1497 1500 1503 1505 1505 1506 1508 1509 1511 1512 1512 1513 1514 1513 1514
1517 1515 1515 1515 1510 1506 1506 1505 1504 1503 1500 1498 1498 1496 1495 1495 1494 1494 1494 1493 1492 1491 1489 1490 1490 1488 1486 1484 1485 1485 1484 1484 1485 1483 1482 1483 1481 1479 1479 1477 1476 1478 1480 1479 1481 1482 1486 1491 1491 1492 1497 1497 1493 1494 1495 1494 1494 1496 1496 1494 1495 1497 1497 1496 1496 1497 1500 1503 1502 1504 1507 1503 1496 1497 1500 1503 1503 1504 1505 1506 1508 1510 1511 1512 1512 1513 1513 1513
1516 1515 1515 1516 1510 1505 1504 1502 1502 1503 1499 1495 1495 1495 1495 1494 1494 1496 1495 1491 1490 1491 1490 1490 1490 1489 1486 1484 1484 1486 1485 1484 1483 1482 1482 1481 1479 1479 1479 1478 1476 1477 1478 1478 1480 1480 1482 1487 1490 1494 1498 1495 1492 1494 1494 1496 1503 1503 1494 1490 1491 1493 1494 1494 1493 1494 1496 1498 1501 1503 1502 1497 1494 1496 1500 1501 1502 1503 1504 1505 1508 1509 1510 1511 1512 1512 1512 1513